Погода в Киржеманах

Россия / Республика Мордовия     54°37′54″N   45°50′52″E
темп.,
°C
ветер,
м/с
пор.,
м/с
влажн.,
%
обл.,
%
осадки,
мм/ч
давл.,
гПа
погр.,
м
22 апреля, чт
чт2200:00+6юз61086100 0.1 1017770
03:00+5ю3790100 0.1 1019255
06:00+5ююв4889100 0.0 1020254
09:00+7ююв51088100 0.1 1020428
12:00+12ююз81063100 0.8 10201525
15:00+13юз685586 2.0 10201758
18:00+11з46685 0.1 1021264
21:00+7юз11805 0.1 102210
23 апреля, пт
пт2300:00+6ююз22795 0.0 102310
03:00+5ююв22845 0.0 102310
06:00+6ююв227964 0.0 102449
09:00+11ююв356439 0.0 1023258
12:00+15ююв344633 0.0 10221815
15:00+15юв3442100 0.0 10212216
18:00+13вюв355988 0.0 1020102
21:00+11юв3972100 0.0 1019220
24 апреля, сб
сб2400:00+9юв3781100 0.1 1017151
03:00+8вюв3582100 0.1 101695
06:00+8вюв3684100 0.0 1014193
09:00+11вюв4567100 0.0 1012587
12:00+13юв4456100 0.0 10101386
15:00+14юв5551100 0.1 10081500
18:00+11ююв4773100 0.6 1006436
21:00+7зюз6889100 9.2 1007652
25 апреля, вс
вс2500:00+4з71086100 0.2 1008777
03:00+4з497925 0.2 1009873
06:00+4зюз49905 0.0 1010351
09:00+8з5864100 0.0 10101068
12:00+10з684653 0.2 10112225
15:00+10зюз784784 0.3 10121842
18:00+7юз467298 0.9 1013688
21:00+5зюз4107445 1.3 1015302
26 апреля, пн
пн2600:00+3юз511765 0.0 1016366
03:00+2юз511820 0.0 1017336
06:00+2юз410805 0.0 1017346
09:00+7юз696551 0.0 10171259
12:00+10юз6949100 0.3 10162083
15:00+9юз7106261 1.1 10151560
18:00+8юз476997 0.8 1015519
21:00+6юв227890 0.8 101412